Location: Oberstdorf
(47.4188°N, 10.2969°E)
Time: 09:54:23
(UTC+01:00)

Tiangong 2 - Visible Passes

Search period start: 18 February 2018 00:00
Search period end: 28 February 2018 00:00
Orbit: 385 x 388 km, 42.8° (Epoch: 17 February)

Date Brightness Start Highest point End Pass type
(mag) Time Alt. Az. Time Alt. Az. Time Alt. Az.
18 Feb 2.3 18:34:18 10° WSW 18:37:14 34° S 18:40:06 10° ESE visible
18 Feb 3.8 20:11:10 10° WSW 20:12:21 16° SW 20:12:21 16° SW visible
19 Feb 2.8 19:12:06 10° WSW 19:14:48 26° SSW 19:16:19 18° SSE visible
20 Feb 3.7 19:50:30 10° WSW 19:52:13 14° SSW 19:52:37 14° SSW visible
21 Feb 3.4 18:51:08 10° WSW 18:53:30 19° SSW 18:55:52 10° SSE visible
23 Feb 3.9 18:30:25 10° WSW 18:32:06 14° SSW 18:33:48 10° S visible
